Powrót do katalogu

STARLINK-33577

AktywnyŁącznośćVLEO
NORAD 62762·PAYLOAD·🇺🇸 United States

Wystrzelony Jan 21, 2025 z Vandenberg Space Force Base

Loading…

Następne Przeloty (najbliższe 24 godziny)

TLE

ŚwieżeSource: CelesTrak SupGP

Epoka: Sep 14, 2026, 22:24 UTC

1 62762C 25015E   26257.93381944 -.00039839  00000+0 -12808-2 0  2570
2 62762  53.1567 161.6224 0001206  80.5766 178.9602 15.31728420    12

Śledź STARLINK-33577 w czasie rzeczywistym z AllMySat

Download on the App Store